TimeCDT,TemperatureF,Dew PointF,Humidity,Sea Level PressureIn,VisibilityMPH,Wind Direction,Wind SpeedMPH,Gust SpeedMPH,PrecipitationIn,Events,Conditions,WindDirDegrees,DateUTC
12:53 AM,46.0,44.1,93,30.20,10.0,SSW,4.6,-,N/A,,Clear,200,2013-09-13 05:53:00
1:53 AM,45.0,42.1,90,30.20,10.0,South,3.5,-,N/A,,Clear,190,2013-09-13 06:53:00
2:53 AM,44.1,42.1,93,30.20,10.0,SSW,5.8,-,N/A,,Clear,200,2013-09-13 07:53:00
3:53 AM,44.1,42.1,93,30.19,10.0,SSW,4.6,-,N/A,,Clear,200,2013-09-13 08:53:00
4:53 AM,45.0,43.0,93,30.18,10.0,South,5.8,-,N/A,,Clear,190,2013-09-13 09:53:00
5:53 AM,43.0,41.0,93,30.19,10.0,South,4.6,-,N/A,,Clear,170,2013-09-13 10:53:00
6:53 AM,45.0,42.1,90,30.18,10.0,South,4.6,-,N/A,,Clear,190,2013-09-13 11:53:00
7:53 AM,46.9,45.0,93,30.17,10.0,South,4.6,-,N/A,,Clear,170,2013-09-13 12:53:00
8:53 AM,54.0,48.9,83,30.16,10.0,South,6.9,-,N/A,,Clear,190,2013-09-13 13:53:00
9:53 AM,63.0,51.1,65,30.15,10.0,South,9.2,-,N/A,,Clear,190,2013-09-13 14:53:00
10:53 AM,68.0,50.0,52,30.13,10.0,South,12.7,-,N/A,,Clear,190,2013-09-13 15:53:00
11:53 AM,70.0,51.1,51,30.11,10.0,SSW,16.1,21.9,N/A,,Clear,200,2013-09-13 16:53:00
12:53 PM,73.0,51.1,46,30.09,10.0,South,15.0,-,N/A,,Partly Cloudy,190,2013-09-13 17:53:00
1:53 PM,73.9,51.1,45,30.06,10.0,SSW,11.5,21.9,N/A,,Partly Cloudy,200,2013-09-13 18:53:00
2:53 PM,75.0,48.9,40,30.02,10.0,SSW,13.8,23.0,N/A,,Partly Cloudy,210,2013-09-13 19:53:00
3:53 PM,77.0,48.9,37,29.99,10.0,South,18.4,23.0,N/A,,Clear,190,2013-09-13 20:53:00
4:53 PM,77.0,48.9,37,29.97,10.0,SSW,13.8,20.7,N/A,,Partly Cloudy,200,2013-09-13 21:53:00
5:53 PM,77.0,48.0,36,29.95,10.0,SSW,16.1,24.2,N/A,,Partly Cloudy,200,2013-09-13 22:53:00
6:53 PM,75.0,48.9,40,29.93,10.0,South,13.8,-,N/A,,Partly Cloudy,190,2013-09-13 23:53:00
7:53 PM,69.1,50.0,51,29.91,10.0,South,11.5,-,N/A,,Partly Cloudy,180,2013-09-14 00:53:00
8:53 PM,66.0,52.0,60,29.91,10.0,South,12.7,-,N/A,,Partly Cloudy,180,2013-09-14 01:53:00
9:53 PM,64.0,51.1,63,29.88,10.0,South,11.5,-,N/A,,Clear,180,2013-09-14 02:53:00
10:53 PM,63.0,51.1,65,29.87,10.0,South,11.5,-,N/A,,Clear,180,2013-09-14 03:53:00
11:53 PM,61.0,50.0,67,29.88,10.0,South,11.5,-,N/A,,Clear,180,2013-09-14 04:53:00